{"data":{"norad_id":57638,"intl_designator":"2023-122G","name":"STARLINK-30328","alt_names":[],"object_type":"PAYLOAD","status":"ACTIVE","operator":null,"country":"US","launch_date":"2023-08-17","launch_site_code":"AFETR","launch_vehicle":null,"mission":null,"orbit_class":"UNKNOWN","rcs_meters":null,"size_class":null,"mass_kg":null,"dimensions":null,"purposes":["comms"],"wikipedia_slug":null,"has_3d_model":false,"image_url":null,"decayed_at":null,"tle_current":{"epoch":"2026-09-19T18:47:28.524192Z","epoch_age_seconds":193645,"freshness":"STALE","line1":"1 57638U 23122G   26262.78296903  .00000439  00000+0  25468-4 0  9995","line2":"2 57638  43.0013  65.0585 0001955 250.7176 109.3464 15.27587643172037","mean_motion":15.27587643,"eccentricity":0.0001955,"inclination_deg":43.0013,"raan_deg":65.0585,"arg_perigee_deg":250.7176,"mean_anomaly_deg":109.3464,"bstar":2.5468e-5,"rev_number":17203,"period_min":94.266277067548,"perigee_km":481.68485283592,"apogee_km":484.36756765112,"semimajor_km":6861.1632102435,"source":"CELESTRAK","updated_at":"2026-09-21T09:00:33.666274Z"}}}